Location: Newark
(22.3060°N, 114.2134°E)
Time: 23:19:04
(UTC+00:00)

Vanguard 2 - Pass Details

Date: 04 August 2021
Orbit: 553 x 2937 km, 32.9° (Epoch: 26 September)

Event Time Altitude Azimuth Distance (km) Brightness Sun altitude
Rises 19:09:41 0° 260° (W) 3,118 - -34.4°
Reaches altitude 10° 19:12:23 10° 267° (W) 2,010 - -34.0°
Maximum altitude 19:16:31 42° 339° (NNW) 808 - -33.2°
Exits shadow 19:18:51 20° 41° (NE) 1,294 9.3 -32.8°
Drops below altitude 10° 19:20:17 10° 51° (NE) 1,830 10.3 -32.6°
Sets 19:22:39 0° 59° (ENE) 2,797 11.5 -32.2°
